FW3725 Weather Reports


time (UTC)temp
C
wind
direction
speed
KPH
gust
KPH
rain 1hr
cm
rain 24hr
cm
rain mn
cm
humidity
%
barometer
mb
20260505233019 16 63 0.0 0.0 0.00 0.00 0.00 73 1016.2
20260505231519 16 63 0.0 0.0 0.00 0.00 0.00 73 1016.3
20260505230017 16 63 0.0 0.0 0.00 0.00 0.00 74 1016.2
20260505224519 16 63 0.0 0.0 0.00 0.00 0.00 74 1016.3
20260505223016 15 63 0.0 0.0 0.00 0.00 0.00 75 1016.4
20260505221519 15 63 0.0 0.0 0.00 0.00 0.00 74 1016.4
20260505220024 15 69 0.0 0.0 0.00 0.00 0.00 74 1016.5
20260505214522 15 68 0.0 0.0 0.00 0.00 0.00 74 1016.6
20260505213014 15 40 0.0 0.0 0.00 0.00 0.00 74 1016.8
20260505211514 15 69 0.0 0.0 0.00 0.00 0.00 74 1016.7
20260505210013 15 264 0.0 0.0 0.00 0.00 0.00 74 1016.6
20260505204513 15 261 0.0 0.0 0.00 0.00 0.00 74 1016.6
20260505203011 16 19 0.0 0.0 0.00 0.00 0.00 76 1016.6
20260505201512 15 274 0.0 0.0 0.00 0.00 0.00 77 1016.8
20260505200008 15 317 0.0 0.0 0.00 0.00 0.00 78 1017.0
20260505194520 15 281 0.0 0.0 0.00 0.00 0.00 79 1017.0
20260505193021 15 282 0.0 0.0 0.00 0.00 0.00 77 1017.2
20260505191505 15 312 0.0 0.0 0.00 0.00 0.00 78 1017.0
20260505190001 14 35 0.0 0.0 0.00 0.00 0.00 79 1016.9
20260505184606 14 296 0.0 0.0 0.00 0.00 0.00 79 1017.0
20260505183058 14 296 0.0 0.0 0.00 0.00 0.00 79 1017.0
20260505181559 13 296 0.0 0.0 0.00 0.00 0.00 79 1017.0
20260505174610 13 335 0.0 0.0 0.00 0.00 0.00 80 1016.8
20260505173052 13 270 0.0 0.0 0.00 0.00 0.00 81 1016.7
20260505171551 13 340 0.0 0.0 0.00 0.00 0.00 82 1016.4
20260505170122 13 340 0.0 0.0 0.00 0.00 0.00 83 1016.4
20260505164549 12 340 0.0 0.0 0.00 0.00 0.00 84 1016.4
20260505163046 12 340 0.0 0.0 0.00 0.00 0.00 85 1016.3
20260505161553 12 340 0.0 0.0 0.00 0.00 0.00 85 1016.3
20260505153052 11 290 0.0 0.0 0.00 0.00 0.00 86 1016.1
20260505151545 11 290 0.0 0.0 0.00 0.00 0.00 85 1016.0
20260505124522 11 275 0.0 0.0 0.00 0.00 0.00 82 1015.4
20260505123023 11 275 0.0 0.0 0.00 0.00 0.00 81 1015.5
20260505121519 11 275 0.0 0.0 0.00 0.00 0.00 81 1015.5
20260505120026 11 275 0.0 0.0 0.00 0.00 0.00 80 1015.4
20260505114518 11 275 0.0 0.0 0.00 0.00 0.00 79 1015.6
20260505113025 11 275 0.0 0.0 0.00 0.00 0.00 79 1015.5
20260505111520 11 275 0.0 0.0 0.00 0.00 0.00 78 1015.6
20260505101514 11 275 0.0 0.0 0.00 0.00 0.00 77 1015.6
20260505100010 11 275 0.0 0.0 0.00 0.00 0.00 77 1015.7
20260505094510 11 275 0.0 0.0 0.00 0.00 0.00 77 1015.7
20260505093010 11 275 0.0 0.0 0.00 0.00 0.00 77 1015.8
20260505091506 12 275 0.0 0.0 0.00 0.00 0.00 77 1015.6
20260505090005 12 273 0.0 0.0 0.00 0.00 0.00 77 1016.1
20260505084505 12 270 0.0 0.0 0.00 0.00 0.00 77 1016.2
20260505083008 12 290 0.0 0.0 0.00 0.00 0.00 77 1016.4
20260505081502 12 290 0.0 0.0 0.00 0.00 0.00 77 1016.3
20260505080100 12 278 0.0 0.0 0.00 0.00 0.00 79 1016.5
20260505074559 12 276 0.0 0.0 0.00 0.00 0.00 80 1016.5
20260505073105 12 302 0.0 0.0 0.00 0.00 0.00 81 1016.5
20260505071554 12 290 0.0 0.0 0.00 0.00 0.00 80 1016.3
20260505070053 12 290 0.0 0.0 0.00 0.00 0.00 80 1016.2
20260505064601 12 290 0.0 0.0 0.00 0.00 0.00 80 1016.1
20260505063054 12 290 0.0 0.0 0.00 0.00 0.00 80 1016.1
20260505061552 12 290 0.0 0.0 0.00 0.00 0.00 79 1015.9
20260505060051 13 290 0.0 0.0 0.00 0.00 0.00 79 1015.8
20260505054559 13 273 0.0 0.0 0.00 0.00 0.00 77 1016.1
20260505053107 13 289 0.0 0.0 0.00 0.00 0.00 77 1016.2
20260505051549 13 279 0.0 0.0 0.00 0.00 0.00 76 1016.3
20260505041608 13 309 0.0 0.0 0.00 0.00 0.00 73 1016.0
20260505040046 13 92 0.0 0.0 0.00 0.00 0.00 72 1015.8
20260505034547 14 271 0.0 0.0 0.00 0.00 0.00 70 1015.7
20260505033044 14 261 0.0 0.0 0.00 0.00 0.00 68 1015.4
20260505031544 14 260 0.0 0.0 0.00 0.00 0.00 67 1015.3
20260505030044 15 312 0.0 0.0 0.00 0.00 0.00 69 1015.3
20260505024643 15 277 0.0 0.0 0.00 0.00 0.00 69 1015.2
20260505023047 15 268 0.0 0.0 0.00 0.00 0.00 68 1015.3
20260505021545 15 277 0.0 0.0 0.00 0.00 0.00 68 1015.3
20260505020043 15 272 0.0 0.0 0.00 0.00 0.00 67 1015.1
20260505014544 15 108 0.0 0.0 0.00 0.00 0.00 66 1015.1
20260505013039 16 95 0.0 0.0 0.00 0.00 0.00 66 1015.2
20260505011539 16 32 0.0 0.0 0.00 0.00 0.00 65 1015.3
20260505010043 16 289 0.0 0.0 0.00 0.00 0.00 65 1015.4
20260505004539 16 283 0.0 0.0 0.00 0.00 0.00 67 1015.4
20260505003038 16 21 0.0 0.0 0.00 0.00 0.00 68 1015.4
20260505001547 16 273 0.0 0.0 0.00 0.00 0.00 69 1015.5
20260505000041 16 285 0.0 0.0 0.00 0.00 0.00 69 1015.4
20260504234536 16 268 0.0 0.0 0.00 0.00 0.00 68 1015.3